Location: Risskov
(56.1972°N, 10.2480°E)
Time: 13:08:23
(UTC+00:00)

Cosmos 1844 Rocket - Pass Details

Date: 05 July 2020
Orbit: 826 x 843 km, 71.0° (Epoch: 06 August)

Event Time Altitude Azimuth Distance (km) Brightness Sun altitude
Rises 21:03:49 0° 321° (NW) 3,380 8.4 -5.8°
Reaches altitude 10° 21:06:34 10° 310° (NW) 2,441 6.6 -6.0°
Maximum altitude 21:11:11 27° 255° (WSW) 1,532 4.3 -6.3°
Drops below altitude 10° 21:15:47 10° 198° (SSW) 2,426 4.7 -6.6°
Enters shadow 21:18:12 - 188° (S) 3,242 5.3 -6.8°
